Vorticity
nan nan nan nan nan nan nan nan nan nan nan nan nan nan nan nan nan nan nan nan nan nan nan nan nan nan nan nan nan nan nan nan nan nan nan nan nan nan nan nan nan nan nan nan nan nan nan nan nan nan nan nan nan nan
nan 10 8 8 11 5 9 12 17 22 17 11 10 9 9 9 9 3 8 11 10 8 7 9 16 17 8 -2 2 9 6 10 8 8 8 8 7 15 13 12 11 11 10 8 11 -3 5 6 5 0 8 7 5 nan
nan 8 7 6 7 8 8 8 11 15 18 16 10 9 9 9 10 3 6 10 8 10 13 11 19 17 15 11 0 0 6 11 7 7 9 13 11 10 9 10 7 9 15 8 5 6 3 -0 5 3 4 5 6 nan
nan 5 4 6 7 7 8 6 7 11 13 16 16 11 8 9 9 7 7 8 7 9 13 16 16 17 21 20 14 5 -5 -0 11 10 10 9 14 9 7 10 6 8 2 12 7 6 12 14 7 8 12 13 13 nan
nan 6 6 9 9 7 9 11 5 5 11 11 11 13 12 9 9 12 11 11 9 5 6 12 14 20 20 21 14 10 11 4 6 9 11 10 11 9 9 12 8 11 6 4 3 11 7 6 10 12 13 14 13 nan
nan 5 8 9 9 9 6 8 9 6 7 11 10 10 12 12 12 9 13 21 17 5 6 10 13 16 18 20 16 14 12 12 10 10 10 12 10 8 11 11 8 13 17 9 10 14 8 10 10 15 17 10 11 nan
nan 6 10 8 7 9 9 6 8 8 6 10 13 11 12 12 9 7 5 2 13 10 8 11 11 14 14 13 15 17 16 13 11 11 11 11 14 10 7 7 11 15 13 10 14 15 14 14 14 11 13 14 15 nan
nan 7 8 8 7 9 10 8 7 8 6 10 14 11 19 16 12 13 7 1 7 13 12 11 10 13 15 9 11 11 12 12 12 10 11 13 13 11 11 9 14 10 13 14 17 15 11 10 11 9 7 11 12 nan
nan 7 7 10 8 6 9 10 9 8 7 11 16 18 23 19 14 23 25 17 9 8 10 13 13 10 10 9 11 12 12 10 10 10 14 11 9 9 6 10 12 14 13 11 16 15 14 9 8 12 11 12 13 nan
nan 6 6 8 8 7 8 10 10 11 7 20 24 20 13 2 14 22 14 17 12 10 10 10 13 15 8 10 11 10 11 12 11 11 11 10 8 12 13 10 11 14 12 11 7 7 10 11 12 12 12 15 16 nan
nan 6 7 8 7 8 9 9 9 14 22 21 11 8 7 12 18 12 12 11 9 9 13 14 10 9 10 12 12 10 10 11 9 16 9 8 13 10 10 13 11 10 10 7 10 11 11 14 14 16 21 25 23 nan
nan 8 9 9 9 9 9 9 12 11 9 10 13 13 13 15 13 13 12 11 12 12 12 12 11 10 12 11 12 14 10 9 14 13 8 10 9 6 6 7 8 9 10 12 15 17 17 19 21 21 21 22 22 nan
nan 10 12 10 9 9 9 8 11 7 12 18 15 12 12 11 11 14 11 9 10 15 15 10 12 11 10 11 13 14 11 10 12 10 10 9 5 6 8 9 10 11 14 16 17 18 16 17 18 19 16 14 15 nan
nan 9 10 12 9 10 8 8 8 14 20 14 12 11 10 9 13 13 10 11 11 14 14 10 11 12 11 13 11 11 11 10 10 12 11 7 5 10 12 12 10 12 17 16 15 16 16 15 14 14 15 16 14 nan
nan 11 12 10 11 11 9 11 11 11 13 13 12 13 9 8 12 13 11 10 15 16 9 6 11 12 12 13 12 8 13 13 11 10 11 6 9 13 13 13 13 15 15 16 14 11 13 14 12 12 13 14 12 nan
nan 11 13 12 10 11 14 11 11 13 11 13 10 11 11 12 12 12 13 12 13 10 7 11 13 10 14 10 13 11 9 12 12 12 10 9 13 13 12 13 13 13 14 13 14 13 12 12 13 11 11 11 12 nan
nan 11 17 12 16 13 11 10 13 12 8 11 11 11 11 12 15 12 12 12 13 10 11 11 13 9 9 12 12 14 10 12 14 12 10 13 12 11 14 12 13 13 13 12 11 11 12 12 10 8 9 11 12 nan
nan 18 18 10 8 11 13 14 14 12 11 12 12 12 14 12 11 12 13 13 13 12 13 12 12 13 11 10 12 12 12 11 12 12 12 12 11 14 13 11 12 12 11 11 11 11 11 12 11 9 8 10 9 nan
nan 19 18 10 3 8 14 14 9 13 17 11 12 14 12 12 13 14 12 13 13 11 11 13 13 13 11 12 13 14 13 12 11 10 11 12 13 13 10 11 10 11 11 11 11 11 9 11 12 12 11 11 10 nan
nan 10 8 6 3 6 13 12 9 13 16 10 12 15 12 13 12 11 11 11 12 12 12 13 12 12 13 11 13 13 13 14 12 11 11 11 11 10 11 12 11 10 9 9 10 12 11 8 10 12 12 13 11 nan
nan 13 14 1 6 8 10 16 12 12 14 12 12 11 11 12 13 11 10 11 11 14 13 12 11 13 12 13 14 13 14 12 12 14 15 11 10 10 11 11 13 12 11 11 10 9 11 11 12 12 11 11 11 nan
nan 15 6 11 7 11 13 14 12 12 14 14 11 12 12 12 12 13 10 11 13 12 13 13 13 13 12 14 17 15 11 12 14 14 13 12 13 11 11 12 12 11 12 13 11 11 11 12 12 11 11 10 11 nan
nan 7 13 16 11 9 13 15 13 12 13 11 10 13 13 13 12 10 11 13 13 12 13 13 16 14 12 12 13 15 17 11 8 11 9 11 13 12 12 13 14 13 11 11 12 12 12 11 12 12 10 12 11 nan
nan 11 16 15 9 9 17 14 11 11 12 14 13 11 12 12 11 12 13 12 11 12 14 15 13 10 13 14 11 11 12 11 11 13 12 11 10 11 12 12 12 12 13 13 11 11 10 10 11 11 12 10 12 nan
nan 13 16 12 10 12 10 11 13 14 15 12 11 14 12 11 12 13 14 12 11 13 13 11 12 13 12 11 12 12 14 14 11 7 11 14 10 9 10 10 11 13 13 11 12 12 11 12 13 13 12 13 12 nan
nan 14 17 10 9 15 12 12 14 11 10 13 11 11 13 13 13 14 14 13 12 13 13 12 11 11 12 14 13 9 12 14 13 9 11 15 15 13 11 9 6 7 16 17 13 9 11 12 13 11 11 11 11 nan
nan 14 13 10 13 10 12 13 15 14 13 13 12 10 13 13 12 10 12 14 15 14 16 17 15 12 11 10 9 11 14 15 16 14 11 12 13 16 18 14 12 15 15 14 15 15 11 10 10 10 9 9 12 nan
nan 16 14 9 11 16 13 11 14 13 10 10 11 16 19 12 7 10 13 16 14 11 12 14 16 16 14 12 12 10 11 13 13 11 7 7 11 13 13 14 16 15 13 16 16 14 15 14 12 11 12 12 9 nan
nan 12 10 12 14 13 13 14 12 9 13 16 14 12 9 9 12 14 17 16 13 10 10 9 11 12 10 10 13 17 14 13 7 4 9 7 6 10 13 15 13 11 13 13 14 16 17 16 15 11 11 11 11 nan
nan 15 11 11 13 12 10 13 15 12 13 16 13 12 10 10 13 17 17 14 13 12 13 14 13 12 12 11 9 6 9 12 15 18 15 13 12 11 13 14 11 12 14 14 11 10 11 12 9 9 12 13 13 nan
nan 12 11 14 12 14 15 11 11 13 11 12 14 16 14 12 8 9 12 16 19 15 14 11 12 14 14 13 10 6 8 14 17 14 15 18 17 13 12 12 13 14 14 13 11 11 8 10 11 12 12 12 12 nan
nan 18 13 11 13 9 8 15 13 11 11 13 15 11 11 14 12 8 10 21 18 13 14 13 10 9 12 13 13 16 18 15 15 18 16 13 13 14 12 11 13 14 14 12 13 14 13 13 11 12 13 12 11 nan
nan nan nan nan nan nan nan nan nan nan nan nan nan nan nan nan nan nan nan nan nan nan nan nan nan nan nan nan nan nan nan nan nan nan nan nan nan nan nan nan nan nan nan nan nan nan nan nan nan nan nan nan nan nan
CAPE
1 0 1 0 4 6 3 19 34 51 53 53 60 56 62 74 89 0 1 0 2 0 0 0 0 0 1 7 7 0 0 0 0 0 0 0 0 0 0 0 0 0 0 0 0 0 0 0 0 0 0 0 0 0
16 4 0 3 5 1 6 3 6 12 34 47 52 48 55 71 88 17 2 0 0 10 0 0 0 0 0 0 0 0 0 0 0 0 0 0 0 0 0 0 0 0 0 0 0 0 0 0 0 0 0 0 0 0
2 4 3 2 0 0 1 6 9 3 13 38 53 49 48 35 41 10 0 0 20 29 7 7 8 0 0 0 0 0 0 0 0 0 13 0 0 1 0 0 0 0 0 0 0 0 0 0 0 0 0 0 0 0
3 0 0 0 0 0 1 5 8 8 7 10 33 39 42 4 18 31 3 0 14 26 1 0 0 0 0 0 0 0 0 0 5 2 0 4 9 0 0 0 0 0 0 1 0 0 0 0 0 0 0 0 0 0
7 0 0 1 0 6 3 6 1 6 5 12 8 25 23 3 6 9 0 3 4 24 1 0 0 0 0 0 0 0 0 1 2 0 0 0 0 1 0 0 1 0 0 1 0 0 1 0 0 0 0 0 0 0
10 0 0 15 16 21 10 15 12 5 6 11 16 11 20 19 37 39 32 0 1 16 21 0 0 0 0 0 0 0 2 4 7 0 0 1 24 21 5 0 0 0 0 0 0 0 0 0 0 0 0 0 0 0
8 1 1 23 15 15 19 25 22 23 24 28 34 18 21 32 22 10 6 0 2 5 1 0 0 0 0 0 0 0 0 4 2 0 0 1 11 3 0 5 0 0 0 0 0 0 0 0 0 0 0 0 0 0
13 6 1 13 25 27 15 22 25 23 28 29 30 20 37 56 50 35 0 0 0 24 8 0 0 0 0 0 1 0 0 0 0 0 0 0 0 0 0 0 0 0 0 0 0 0 0 0 0 0 0 0 0 0
21 16 5 2 13 12 15 18 29 24 20 29 22 27 20 15 4 1 0 0 8 1 0 0 0 0 0 0 0 0 0 0 0 0 0 0 0 0 0 0 0 0 0 0 0 0 0 0 0 0 0 0 0 0
31 20 16 8 11 17 23 27 30 24 5 16 8 0 0 0 2 4 6 9 5 12 9 0 0 0 0 0 1 0 0 0 1 0 0 1 0 0 0 0 0 0 0 0 0 0 0 0 0 0 0 1 0 0
34 21 22 18 28 18 22 27 28 8 2 11 4 0 0 0 3 4 0 0 0 0 0 1 0 0 0 0 1 0 0 0 0 0 0 1 0 0 0 0 0 0 1 1 2 0 0 0 2 4 2 0 0 0
28 29 29 25 19 21 26 34 12 21 10 10 6 9 4 2 0 0 0 1 3 0 0 0 0 0 0 0 0 0 0 0 0 0 0 0 0 0 0 0 0 0 2 0 1 3 7 7 7 8 7 5 4 2
19 22 28 28 34 23 23 31 8 11 15 0 14 0 2 0 0 0 0 5 0 0 0 0 0 0 0 0 0 0 1 0 0 0 0 0 0 0 0 0 0 0 0 2 5 5 2 3 4 5 2 2 2 0
24 32 34 23 23 33 23 11 9 9 32 19 0 0 0 0 0 0 0 0 0 0 0 0 0 0 0 0 0 0 0 0 0 1 0 0 0 0 0 2 1 0 1 1 4 4 2 1 1 1 0 0 0 0
32 28 26 30 40 30 24 6 10 24 48 5 5 0 0 0 0 0 0 0 0 0 0 0 0 0 0 0 0 0 0 1 0 0 0 0 0 0 1 5 1 4 0 0 1 0 1 1 1 0 0 0 0 0
50 32 2 26 28 29 24 10 5 49 51 6 21 7 0 1 0 1 0 0 0 0 0 0 0 0 0 0 0 0 0 0 0 0 0 0 0 0 2 2 0 0 0 1 1 1 0 0 0 0 0 0 0 0
47 0 11 29 20 34 35 42 30 30 6 50 0 0 0 0 0 0 0 0 0 0 0 0 0 0 0 0 0 0 0 0 0 0 0 1 0 2 1 0 0 0 0 1 0 0 0 0 0 0 0 2 2 2
0 0 20 21 19 13 11 33 28 21 2 0 0 0 0 0 0 0 0 0 0 0 0 0 0 0 0 0 0 0 1 1 0 0 1 1 0 2 0 3 4 1 0 0 0 0 0 1 2 2 1 2 0 1
0 0 30 27 0 24 8 1 0 4 7 0 0 0 0 0 0 0 0 0 0 0 0 0 0 0 0 0 0 0 0 0 1 2 1 0 0 0 1 1 1 0 0 1 1 2 3 3 3 3 3 2 2 2
42 47 39 27 25 39 13 11 0 15 6 0 0 0 0 0 0 0 0 0 0 0 0 0 0 0 0 0 0 0 0 0 0 1 1 0 0 0 0 0 1 1 1 1 2 2 3 2 3 3 2 1 0 1
26 7 50 27 21 18 0 1 1 3 0 0 0 0 0 0 0 0 0 0 0 0 0 0 0 0 0 0 0 0 0 0 0 0 1 2 1 0 0 1 1 1 2 1 0 2 3 4 4 3 0 0 0 0
0 31 33 6 5 15 2 2 0 0 0 0 0 0 0 0 0 0 0 0 0 0 0 0 0 0 0 0 0 0 0 0 0 0 0 0 0 0 0 1 0 1 2 2 3 3 4 3 2 0 0 0 0 0
6 16 1 16 3 6 0 0 0 0 0 0 0 2 0 0 0 0 0 0 0 0 0 0 0 0 0 0 0 0 0 0 0 0 0 0 0 0 0 0 0 1 2 3 3 2 2 1 0 0 0 0 0 0
4 4 1 0 1 0 2 0 0 0 0 5 1 4 0 0 0 0 0 0 0 0 0 0 0 0 0 0 0 0 0 0 0 0 0 0 1 1 0 0 0 1 1 2 3 1 0 0 0 0 0 0 0 0
1 0 0 5 0 0 0 0 0 0 0 0 0 0 0 0 0 0 0 0 1 0 0 0 0 0 0 0 0 0 0 0 0 0 0 0 1 1 1 0 0 0 0 0 0 0 0 0 0 0 0 0 0 0
0 0 0 0 0 0 0 0 0 0 0 0 0 0 0 0 0 0 0 0 0 0 0 0 0 0 0 0 0 0 0 0 0 0 0 0 0 0 0 0 0 0 0 0 0 0 0 0 0 0 0 0 0 0
0 0 0 0 0 0 0 0 0 0 0 0 0 0 0 0 0 0 0 0 0 0 0 0 0 0 0 0 0 0 0 0 0 0 0 0 0 0 0 0 0 0 0 0 0 0 0 0 0 0 0 0 0 0
0 0 0 0 0 0 0 0 0 0 0 0 0 0 0 0 0 0 0 0 0 0 0 0 0 0 0 0 0 0 0 0 0 0 0 0 0 0 0 0 0 0 0 0 0 0 0 0 0 0 0 0 0 0
0 0 0 0 0 0 0 0 0 0 0 0 0 0 0 0 0 0 0 0 0 0 0 0 0 0 0 0 0 0 0 0 0 0 0 0 0 0 0 0 0 0 0 0 0 0 0 0 0 0 0 0 0 0
0 0 0 0 0 0 0 0 0 0 0 0 0 0 0 0 0 0 0 0 0 0 0 0 0 0 0 0 0 0 0 0 0 0 0 0 0 0 0 0 0 0 0 0 0 0 7 0 1 0 0 0 0 0
0 0 0 0 0 0 0 0 0 0 0 0 0 0 0 0 0 0 0 0 0 0 0 0 0 0 0 0 0 0 0 0 0 0 0 0 0 0 0 0 0 0 0 0 0 0 0 0 0 0 0 0 0 0
0 0 0 0 0 0 0 0 0 0 0 0 0 0 0 0 0 0 0 0 0 0 0 0 0 0 0 0 0 0 0 0 0 0 0 0 0 0 0 0 0 0 0 0 0 0 0 0 0 0 0 0 0 0
0 0 0 0 1 0 0 0 0 0 0 0 0 0 0 0 0 0 0 0 0 0 0 0 0 0 0 0 0 0 0 0 0 0 0 0 0 0 0 0 0 0 0 0 0 0 0 0 0 0 0 0 0 0